Regional Weather Roundup
Issued by NWS

Home | Current Version | Previous Version | Text Only | Print | Product List | Glossary Off
Versions: 1 2 3 4 5 6 7 8 9 10 11 12 13 14 15 16 17 18 19 20 21 22 23 24 25 26 27 28 29 30 31 32 33 34 35 36 37 38 39 40 41 42 43 44 45 46 47 48 49 50

145
ASUS45 KBOU 102210
RWRCO

WEATHER ROUNDUP FOR COLORADO
NATIONAL WEATHER SERVICE DENVER/BOULDER CO
300 PM MST SUN DEC 10 2017

NOTE: "FAIR" INDICATES FEW OR NO CLOUDS BELOW 12000 FEET WITH NO
SIGNIFICANT WEATHER AND/OR OBSTRUCTIONS TO VISIBILITY.

COZ001>005-013-030-031-102300-
...NORTHWEST COLORADO...

CITY           SKY/WX    TMP DP  RH WIND       PRES   REMARKS
CRAIG          FAIR      36  19  50 SW3       30.53S
HAYDEN         FAIR      35  16  45 CALM      30.54S
MEEKER         FAIR      50  -8   9 SW6       30.50S
RABBIT EARS PA FAIR      28  12  50 W7        30.56R WCI  21
STEAMBOAT SPGS FAIR      37  17  43 CALM      30.52S
WALDEN         FAIR      36  10  35 S7        30.52S
$$

COZ006>008-011-102300-
...WEST CENTRAL VALLEYS...

CITY           SKY/WX    TMP DP  RH WIND       PRES   REMARKS
GRAND JUNCTION FAIR      48   5  17 CALM      30.50F
MONTROSE       FAIR      46  -1  14 CALM      30.52F
EAGLE          FAIR      36   9  32 CALM      30.57F
RIFLE          FAIR      49   0  13 CALM      30.50F
DELTA          FAIR      48  -1  12 CALM      30.51F
NUCLA          FAIR      46  -6  11 CALM      30.53F
$$

COZ017>023-064>068-102300-
...SOUTHWEST COLORADO...

CITY           SKY/WX    TMP DP  RH WIND       PRES   REMARKS
DURANGO        FAIR      50   2  14 W9        30.46S
CORTEZ         FAIR      46   4  17 S13       30.47F
PAGOSA SPRINGS FAIR      52 -12   7 S6        30.47F
TELLURIDE      FAIR      47 -12   8 W9G17     30.53S
WOLF CREEK PAS FAIR      34  -9  15 SW9       30.64R WCI  26
$$

COZ009-010-012-014-032>034-037-058>063-102300-
...CENTRAL COLORADO...

CITY           SKY/WX    TMP DP  RH WIND       PRES   REMARKS
ASPEN          FAIR      44  -6  12 NW6       30.50F
BUENA VISTA    FAIR      52 -14   6 NW13G18   30.43F
COPPER MTN     NOT AVBL
BERTHOUD PASS  FAIR      19   9  63 NW23G36   30.55S WCI   2
COTTONWOOD PAS FAIR      50 -42   1 CALM      30.50S
GUNNISON       FAIR      40  -3  16 W5        30.52F
KREMMLING      FAIR      32  18  55 CALM      30.59S
LEADVILLE      FAIR      38 -13  11 NW8       30.51F
MONARCH PASS   FAIR      32  -9  16 W13       30.68R WCI  22
SALIDA         FAIR      54 -11   6 NW3       30.49S
SUNLIGHT       FAIR      32  -9  16 W5        30.62R WCI  27
WILKERSON PASS FAIR      37 -22   7 W5        30.56S
$$

COZ069>075-102300-
...SAN LUIS VALLEY/SANGRE DE CRISTO MOUNTAINS...

CITY           SKY/WX    TMP DP  RH WIND       PRES   REMARKS
ALAMOSA        FAIR      47 -10   9 SW3       30.46F
DEL NORTE      FAIR      45  -3  13 CALM      30.48S
LA VETA PASS   FAIR      37  -4  17 SW16G23     N/A
SAGUACHE       FAIR      45  -6  12 SE6       30.47F
$$

COZ035-036-038>040-102300-
...NORTHERN COLORADO FRONT RANGE...

CITY           SKY/WX    TMP DP  RH WIND       PRES   REMARKS
DENVER INTL AP FAIR      60  -7   6 W3        30.33F
DMNS CITY PARK NOT AVBL
AURORA         MOSUNNY   59 -12   5 NW5       30.34F
FRONT RANGE AP MOSUNNY   63  -6   6 W5        30.34F
ERIE MUNI ARPT FAIR      59  -3   8 CALM      30.37F
BOULDER MUN AP FAIR      59   5  11 CALM      30.33F
CENTENNIAL     FAIR      59  -4   7 CALM      30.34F
BROOMFIELD     MOSUNNY   59  -2   8 SW3       30.34F
FORT COLLINS   FAIR      57   1  10 S6        30.33F
LONGMONT       FAIR      61   3  10 CALM      30.35S
$$

COZ041-046-047-076>085-087-088-102300-
...PIKES PEAK/PALMER DIVIDE AND SOUTHERN FOOTHILLS...

CITY           SKY/WX    TMP DP  RH WIND       PRES   REMARKS
COLO. SPRINGS  FAIR      54  -6   8 SE3       30.38F
A. F. ACADEMY  FAIR      54 -15   5 SW3       30.38S
SCHRIEVER AFB  FAIR      53  -7   8 S8        30.38F
CHEYENNE MTN   FAIR      46  -4  12 CALM      30.34F
ELLICOTT         N/A    N/A N/A N/A SW6       30.37S
FALCON         FAIR      54 -10   7 S7        30.40S
FORT CARSON    FAIR      56 -11   6 S3        30.36F
LIMON          FAIR      58  -8   6 S9        30.34F
MONUMENT HILL  FAIR      54  -8   8 W5        30.40S
CANON CITY     FAIR      61  -2   8 SE9       30.34S
WALSENBURG     FAIR      61   1   9 SE7       30.36S
TRINIDAD       FAIR      59  -1   9 E9        30.36F
$$

COZ042>045-048>051-090-091-102300-
...NORTHEAST COLORADO...

CITY           SKY/WX    TMP DP  RH WIND       PRES   REMARKS
GREELEY ARPT   FAIR      57   5  12 SW3       30.33S
AKRON          FAIR      58  -6   7 W12       30.31F
BURLINGTON     FAIR      61   0   8 NW15      30.32F
WRAY           FAIR      63   0   8 W12       30.29R
YUMA           FAIR      59   0   9 NW12      30.30S
STERLING       FAIR      63   1   8 NW9       30.28S
HOLYOKE        FAIR      63   1   8 NW12      30.27S
FORT MORGAN    FAIR      60  -3   7 SW5       30.32S
$$

COZ086-089-092>099-102300-
...SOUTHEAST COLORADO...

CITY           SKY/WX    TMP DP  RH WIND       PRES   REMARKS
PUEBLO         FAIR      61  -4   7 SE6       30.33F
LA JUNTA       FAIR      61  -1   8 S6        30.33F
LAMAR          FAIR      63  -1   7 CALM      30.31F
SPRINGFIELD      N/A     62   3   9 N6        30.33F
$$




USA.gov is the U.S. government's official web portal to all federal, state and local government web resources and services.